Tracking 19562 objects as of 21-Mar-2019
HD Live streaming from Space Station
objects crossing your sky now

COSMOS 1779 (GLONASS)

Track COSMOS 1779 (GLONASS) now!
COSMOS 1779 (GLONASS) is classified as:


NORAD ID: 16962
Int'l Code: 1986-071B
Perigee: 19,112.3 km
Apogee: 19,161.6 km
Inclination: 64.1 °
Period: 675.7 minutes
Semi major axis: 25507 km
RCS: 1.5271 m2 (large)
Launch date: September 16, 1986
Source: Commonwealth of Independent States (former USSR) (CIS)
Launch site: TYURATAM MISSILE AND SPACE COMPLEX (TTMTR)
aabbcc
Your satellite tracking list
Your tracking list is empty




NASA's NSSDC Master Catalog

Two Line Element Set (TLE):
1 16962U 86071B   19079.99644646  .00000023  00000-0  00000+0 0  9994
2 16962  64.1104 163.3512 0009677  31.5198 247.3887  2.13102940252986
Source of the keplerian elements: AFSPC